• In Latvia
  • List of Countries
  • For 7 days
  • Water Temperature
  • Satellite Maps
  • Weather Map
  • Weather Widgets
  • user-avatar
    Login

    Hourly Weather Cambridge

    Today, 24 September, Sunday

    Time Temperature Precipitation Wind Pressure Humidity
    00:00 +13°C° 0 mm 3 mps 764 mmHg 79%
    01:00 +13°C° 0 mm 3 mps 764 mmHg 80%
    02:00 +13°C° 0 mm 3 mps 764 mmHg 80%
    03:00 +13°C° 0 mm 3 mps 763 mmHg 80%
    04:00 +13°C° 0 mm 3 mps 763 mmHg 82%
    05:00 +12°C° 0 mm 3 mps 763 mmHg 83%
    06:00 +12°C° 0 mm 3 mps 763 mmHg 85%
    07:00 +14°C° 0 mm 3 mps 764 mmHg 78%
    08:00 +15°C° 0 mm 4 mps 764 mmHg 71%
    09:00 +18°C° 0 mm 4 mps 764 mmHg 64%
    10:00 +19°C° 0 mm 4 mps 764 mmHg 60%
    11:00 +20°C° 0 mm 5 mps 764 mmHg 55%
    12:00 +21°C° 0 mm 5 mps 764 mmHg 51%
    13:00 +21°C° 0 mm 5 mps 763 mmHg 51%
    14:00 +21°C° 0 mm 5 mps 763 mmHg 51%
    15:00 +21°C° 0 mm 5 mps 763 mmHg 51%
    16:00 +20°C° 0 mm 4 mps 763 mmHg 56%
    17:00 +18°C° 0 mm 4 mps 763 mmHg 62%
    18:00 +17°C° 0 mm 3 mps 763 mmHg 68%
    19:00 +17°C° 0 mm 3 mps 763 mmHg 71%
    20:00 +16°C° 0 mm 3 mps 763 mmHg 75%
    21:00 +16°C° 0 mm 3 mps 763 mmHg 78%
    22:00 +16°C° 0.2 mm 3 mps 763 mmHg 80%
    23:00 +16°C° 0.2 mm 3 mps 763 mmHg 81%

    Tomorrow, 25 September, Monday

    Time Temperature Precipitation Wind Pressure Humidity
    00:00 +16°C° 0.2 mm 2 mps 763 mmHg 83%
    01:00 +16°C° 0.3 mm 2 mps 763 mmHg 85%
    02:00 +16°C° 0.3 mm 2 mps 762 mmHg 86%
    03:00 +16°C° 0.3 mm 2 mps 762 mmHg 87%
    04:00 +16°C° 0.2 mm 2 mps 762 mmHg 87%
    05:00 +16°C° 0.2 mm 2 mps 762 mmHg 88%
    06:00 +16°C° 0.2 mm 2 mps 762 mmHg 88%
    07:00 +16°C° 0.1 mm 2 mps 762 mmHg 86%
    08:00 +17°C° 0.1 mm 2 mps 762 mmHg 83%
    09:00 +17°C° 0.1 mm 2 mps 763 mmHg 81%
    10:00 +18°C° 0 mm 2 mps 763 mmHg 77%
    11:00 +19°C° 0 mm 2 mps 762 mmHg 73%
    12:00 +19°C° 0 mm 2 mps 762 mmHg 69%
    13:00 +20°C° 0 mm 2 mps 762 mmHg 67%
    14:00 +20°C° 0 mm 2 mps 762 mmHg 65%
    15:00 +20°C° 0 mm 2 mps 762 mmHg 63%
    16:00 +19°C° 0.1 mm 2 mps 763 mmHg 68%
    17:00 +18°C° 0.1 mm 2 mps 763 mmHg 73%
    18:00 +17°C° 0.1 mm 2 mps 763 mmHg 78%
    19:00 +18°C° 0.1 mm 1 mps 763 mmHg 80%
    20:00 +16°C° 0.1 mm 1 mps 764 mmHg 83%
    21:00 +16°C° 0.1 mm 1 mps 764 mmHg 86%
    22:00 +16°C° 0 mm 1 mps 764 mmHg 87%
    23:00 +15°C° 0 mm 1 mps 763 mmHg 88%

    Day after tomorrow, 26 September, Tuesday

    Time Temperature Precipitation Wind Pressure Humidity
    00:00 +15°C° 0 mm 1 mps 763 mmHg 90%
    01:00 +15°C° 0 mm 1 mps 763 mmHg 91%
    02:00 +14°C° 0 mm 1 mps 763 mmHg 92%
    03:00 +14°C° 0 mm 1 mps 763 mmHg 93%
    04:00 +14°C° 0 mm 1 mps 763 mmHg 94%
    05:00 +13°C° 0 mm 1 mps 763 mmHg 94%
    06:00 +13°C° 0 mm 1 mps 764 mmHg 95%
    07:00 +14°C° 0 mm 1 mps 764 mmHg 90%
    08:00 +16°C° 0 mm 1 mps 764 mmHg 85%
    09:00 +18°C° 0 mm 1 mps 764 mmHg 80%
    10:00 +19°C° 0.1 mm 1 mps 764 mmHg 74%
    11:00 +20°C° 0.1 mm 1 mps 764 mmHg 69%
    12:00 +21°C° 0.1 mm 1 mps 764 mmHg 64%
    13:00 +21°C° 0.2 mm 1 mps 764 mmHg 62%
    14:00 +21°C° 0.2 mm 1 mps 764 mmHg 61%
    15:00 +22°C° 0.2 mm 1 mps 764 mmHg 60%
    16:00 +20°C° 0 mm 1 mps 764 mmHg 64%
    17:00 +19°C° 0 mm 1 mps 764 mmHg 69%
    18:00 +18°C° 0 mm 1 mps 764 mmHg 74%
    19:00 +18°C° 0 mm 1 mps 764 mmHg 77%
    20:00 +16°C° 0 mm 1 mps 764 mmHg 80%
    21:00 +16°C° 0 mm 1 mps 765 mmHg 83%
    22:00 +15°C° 0 mm 1 mps 765 mmHg 84%
    23:00 +15°C° 0 mm 1 mps 764 mmHg 86%

    27 September, Wednesday

    Time Temperature Precipitation Wind Pressure Humidity
    00:00 +15°C° 0 mm 1 mps 764 mmHg 87%
    01:00 +15°C° 0 mm 1 mps 764 mmHg 88%
    02:00 +14°C° 0 mm 1 mps 764 mmHg 89%
    03:00 +14°C° 0 mm 2 mps 764 mmHg 90%
    04:00 +14°C° 0 mm 2 mps 764 mmHg 91%
    05:00 +14°C° 0 mm 2 mps 764 mmHg 92%
    06:00 +13°C° 0 mm 2 mps 764 mmHg 93%
    07:00 +14°C° 0 mm 3 mps 764 mmHg 87%
    08:00 +16°C° 0 mm 3 mps 764 mmHg 81%
    09:00 +18°C° 0 mm 4 mps 764 mmHg 75%
    10:00 +19°C° 0 mm 4 mps 764 mmHg 71%
    11:00 +19°C° 0 mm 5 mps 764 mmHg 67%
    12:00 +20°C° 0 mm 5 mps 764 mmHg 63%
    13:00 +20°C° 0 mm 5 mps 763 mmHg 63%
    14:00 +20°C° 0 mm 6 mps 763 mmHg 63%
    15:00 +20°C° 0 mm 6 mps 763 mmHg 63%
    16:00 +20°C° 0.2 mm 5 mps 763 mmHg 67%
    17:00 +19°C° 0.2 mm 5 mps 763 mmHg 72%
    18:00 +18°C° 0.2 mm 4 mps 763 mmHg 76%
    19:00 +17°C° 1.2 mm 4 mps 763 mmHg 79%
    20:00 +17°C° 1.2 mm 4 mps 763 mmHg 82%
    21:00 +17°C° 1.2 mm 4 mps 763 mmHg 85%
    22:00 +17°C° 0.5 mm 4 mps 762 mmHg 84%
    23:00 +17°C° 0.5 mm 4 mps 762 mmHg 84%

    28 September, Thursday

    Time Temperature Precipitation Wind Pressure Humidity
    00:00 +17°C° 0.5 mm 4 mps 762 mmHg 84%
    01:00 +17°C° 0 mm 4 mps 762 mmHg 85%
    02:00 +15°C° 0 mm 4 mps 762 mmHg 86%
    03:00 +15°C° 0 mm 4 mps 762 mmHg 88%
    04:00 +16°C° 0 mm 3 mps 763 mmHg 90%
    05:00 +14°C° 0 mm 3 mps 763 mmHg 92%
    06:00 +15°C° 0 mm 2 mps 763 mmHg 93%
    07:00 +15°C° 0 mm 2 mps 763 mmHg 89%
    08:00 +16°C° 0 mm 2 mps 764 mmHg 84%
    09:00 +17°C° 0 mm 2 mps 764 mmHg 79%
    10:00 +18°C° 0 mm 2 mps 764 mmHg 74%
    11:00 +19°C° 0 mm 3 mps 764 mmHg 68%
    12:00 +20°C° 0 mm 3 mps 765 mmHg 63%
    13:00 +20°C° 0 mm 3 mps 764 mmHg 62%
    14:00 +20°C° 0 mm 3 mps 764 mmHg 61%
    15:00 +20°C° 0 mm 3 mps 764 mmHg 60%
    16:00 +19°C° 0 mm 3 mps 764 mmHg 65%
    17:00 +18°C° 0 mm 3 mps 765 mmHg 69%
    18:00 +17°C° 0 mm 3 mps 765 mmHg 74%
    19:00 +16°C° 0 mm 3 mps 765 mmHg 77%
    20:00 +16°C° 0 mm 3 mps 765 mmHg 79%
    21:00 +14°C° 0 mm 3 mps 765 mmHg 82%
    22:00 +14°C° 0 mm 3 mps 764 mmHg 83%
    23:00 +14°C° 0 mm 4 mps 764 mmHg 84%

    29 September, Friday

    Time Temperature Precipitation Wind Pressure Humidity
    00:00 +14°C° 0 mm 4 mps 764 mmHg 84%
    01:00 +14°C° 0 mm 4 mps 763 mmHg 84%
    02:00 +15°C° 0 mm 5 mps 763 mmHg 84%
    03:00 +15°C° 0 mm 5 mps 762 mmHg 84%
    04:00 +15°C° 0 mm 5 mps 762 mmHg 85%
    05:00 +16°C° 0 mm 5 mps 762 mmHg 87%
    06:00 +16°C° 0 mm 6 mps 762 mmHg 89%
    07:00 +17°C° 0.1 mm 6 mps 761 mmHg 87%
    08:00 +19°C° 0.1 mm 6 mps 761 mmHg 85%
    09:00 +20°C° 0.1 mm 7 mps 761 mmHg 83%
    10:00 +21°C° 0 mm 7 mps 760 mmHg 76%
    11:00 +22°C° 0 mm 8 mps 760 mmHg 69%
    12:00 +23°C° 0 mm 8 mps 759 mmHg 63%
    13:00 +23°C° 0.1 mm 8 mps 759 mmHg 63%
    14:00 +23°C° 0.1 mm 8 mps 758 mmHg 63%
    15:00 +23°C° 0.1 mm 8 mps 758 mmHg 63%
    16:00 +21°C° 0.5 mm 7 mps 758 mmHg 69%
    17:00 +20°C° 0.5 mm 7 mps 758 mmHg 74%
    18:00 +19°C° 0.5 mm 6 mps 758 mmHg 80%
    19:00 +17°C° 1.1 mm 6 mps 759 mmHg 81%
    20:00 +16°C° 1.1 mm 5 mps 759 mmHg 82%
    21:00 +15°C° 1.1 mm 5 mps 760 mmHg 84%
    22:00 +14°C° 0.1 mm 5 mps 760 mmHg 82%
    23:00 +13°C° 0.1 mm 5 mps 760 mmHg 81%
    Show more